Location: Cactus School
(34.5700°N, 118.0931°W)
Time: 05:58:22
(UTC-08:00)

OTV 5 (USA 277) - Pass Details

Date: 10 November 2017
Orbit: 404 x 417 km, 43.0° (Epoch: 07 September)

Event Time Altitude Azimuth Distance (km) Brightness Sun altitude
Exits shadow 05:27:28 18° 297° (WNW) 1,062 ? -11.5°
Maximum altitude 05:29:07 28° 343° (NNW) 798 ? -11.2°
Drops below altitude 10° 05:32:01 10° 45° (NE) 1,456 ? -10.6°
Sets 05:34:18 0° 58° (ENE) 2,317 ? -10.1°
